K0SNA Weather Reports


Display with metric or nautical units.
time (UTC)temp
F
wind
direction
speed
MPH
gust
MPH
rain 1hr
in
rain 24hr
in
rain mn
in
humidity
%
barometer
mb
20260507031305 39 199 0.0 0.0 0.00 0.00 0.00 63 1015.5
20260507030801 39 199 0.0 0.0 0.00 0.00 0.00 63 1015.7
20260507030259 39 199 0.0 0.0 0.00 0.00 0.00 62 1015.7
20260507025756 39 199 0.0 0.0 0.00 0.00 0.00 63 1015.5
20260507025253 38 199 0.0 0.0 0.00 0.00 0.00 63 1015.7
20260507024751 38 199 0.0 0.0 0.00 0.00 0.00 62 1015.5
20260507024248 38 199 0.0 0.0 0.00 0.00 0.00 61 1015.7
20260507023743 38 199 0.0 0.0 0.00 0.00 0.00 60 1015.5
20260507023240 39 199 0.0 0.0 0.00 0.00 0.00 60 1015.6
20260507022738 39 199 0.0 0.0 0.00 0.00 0.00 59 1015.6
20260507022234 40 202 0.0 0.0 0.00 0.00 0.00 57 1015.4
20260507021730 40 207 0.0 1.0 0.00 0.00 0.00 57 1015.7
20260507021226 41 200 0.0 0.0 0.00 0.00 0.00 54 1015.7
20260507020724 41 199 0.0 0.0 0.00 0.00 0.00 54 1015.5
20260507020220 41 202 0.0 0.0 0.00 0.00 0.00 53 1015.7
20260507015718 41 204 0.0 0.0 0.00 0.00 0.00 53 1015.7
20260507015215 42 200 0.0 1.0 0.00 0.00 0.00 53 1015.7
20260507014712 42 200 0.0 1.0 0.00 0.00 0.00 51 1015.5
20260507014208 42 232 2.0 2.0 0.00 0.00 0.00 51 1015.7
20260507013705 42 203 0.0 1.0 0.00 0.00 0.00 51 1015.4
20260507013202 43 205 1.0 1.0 0.00 0.00 0.00 51 1015.4
20260507012700 43 212 1.0 2.0 0.00 0.00 0.00 50 1015.6
20260507012155 43 200 0.0 2.0 0.00 0.00 0.00 50 1015.6
20260507011653 43 229 1.0 2.0 0.00 0.00 0.00 50 1015.6
20260507011149 43 223 1.0 2.0 0.00 0.00 0.00 49 1015.5
20260507010644 44 178 1.0 2.0 0.00 0.00 0.00 49 1015.5
20260507010140 44 215 2.0 2.0 0.00 0.00 0.00 48 1015.5
20260507005638 44 260 3.0 5.0 0.00 0.00 0.00 48 1015.6
20260507005133 44 283 4.0 5.0 0.00 0.00 0.00 48 1015.6
20260507004631 44 269 3.0 5.0 0.00 0.00 0.00 47 1015.5
20260507004128 44 236 3.0 5.0 0.00 0.00 0.00 47 1015.7
20260507003624 45 284 3.0 5.0 0.00 0.00 0.00 47 1015.5
20260507003119 45 277 5.0 6.0 0.00 0.00 0.00 46 1015.5
20260507002616 46 251 2.0 6.0 0.00 0.00 0.00 46 1015.6
20260507002111 46 229 6.0 9.0 0.00 0.00 0.00 46 1015.7
20260507001608 45 222 2.0 5.0 0.00 0.00 0.00 47 1015.6
20260507001106 45 246 3.0 3.0 0.00 0.00 0.00 48 1015.6
20260507000602 45 212 1.0 5.0 0.00 0.00 0.00 48 1015.7
20260507000058 45 256 2.0 5.0 0.00 0.00 0.00 48 1015.8
20260506235556 45 339 4.0 5.0 0.00 0.00 0.00 47 1015.7
20260506235050 45 279 3.0 7.0 0.00 0.00 0.00 46 1015.9
20260506234548 45 234 2.0 3.0 0.00 0.00 0.00 47 1015.8
20260506234045 45 341 5.0 7.0 0.00 0.00 0.00 47 1016.0
20260506233542 45 272 3.0 8.0 0.00 0.00 0.00 47 1015.9
20260506233039 45 336 5.0 8.0 0.00 0.00 0.00 47 1016.0
20260506232535 45 305 4.0 5.0 0.00 0.00 0.00 47 1016.1
20260506232031 45 306 3.0 7.0 0.00 0.00 0.00 47 1016.0
20260506231528 45 196 3.0 6.0 0.00 0.00 0.00 47 1015.9
20260506231026 45 204 2.0 5.0 0.00 0.00 0.00 47 1016.1
20260506230522 45 341 4.0 6.0 0.00 0.00 0.00 47 1016.0
20260506230020 45 283 4.0 7.0 0.00 0.00 0.00 47 1016.0
20260506225517 45 278 4.0 8.0 0.00 0.00 0.00 46 1016.0
20260506225013 45 211 2.0 5.0 0.00 0.00 0.00 47 1016.1
20260506224510 46 264 4.0 7.0 0.00 0.00 0.00 46 1015.9
20260506224006 46 286 4.0 5.0 0.00 0.00 0.00 47 1016.0
20260506223502 45 320 3.0 5.0 0.00 0.00 0.00 48 1016.1
20260506222959 45 146 1.0 5.0 0.00 0.00 0.00 48 1016.1
20260506222456 45 312 3.0 7.0 0.00 0.00 0.00 47 1016.0
20260506221952 45 315 4.0 6.0 0.00 0.00 0.00 48 1016.1
20260506221449 46 298 5.0 8.0 0.00 0.00 0.00 47 1016.1
20260506220948 45 314 3.0 5.0 0.00 0.00 0.00 47 1016.2
20260506220443 45 223 4.0 7.0 0.00 0.00 0.00 48 1016.0
20260506215939 45 267 3.0 5.0 0.00 0.00 0.00 48 1016.1
20260506215436 44 296 3.0 5.0 0.00 0.00 0.00 48 1016.4
20260506214931 45 330 5.0 8.0 0.00 0.00 0.00 48 1016.4
20260506214429 45 306 3.0 5.0 0.00 0.00 0.00 49 1016.4
20260506213926 45 271 5.0 13.0 0.00 0.00 0.00 47 1016.4
20260506213424 45 287 6.0 8.0 0.00 0.00 0.00 49 1016.3
20260506212921 44 281 3.0 6.0 0.00 0.00 0.00 49 1016.6
20260506212417 44 236 2.0 6.0 0.00 0.00 0.00 49 1016.5
20260506211912 45 223 4.0 6.0 0.00 0.00 0.00 48 1016.5
20260506211408 45 234 3.0 5.0 0.00 0.00 0.00 50 1016.4
20260506210905 44 334 6.0 7.0 0.00 0.00 0.00 50 1016.6
20260506210402 44 228 2.0 5.0 0.00 0.00 0.00 50 1016.6
20260506205859 44 230 3.0 8.0 0.00 0.00 0.00 51 1016.7
20260506205355 44 214 1.0 3.0 0.00 0.00 0.00 51 1016.7
20260506204851 44 20 4.0 6.0 0.00 0.00 0.00 51 1016.9
20260506204349 44 289 6.0 10.0 0.00 0.00 0.00 51 1016.8
20260506203847 44 332 4.0 11.0 0.00 0.00 0.00 51 1016.7
20260506203344 43 246 2.0 7.0 0.00 0.00 0.00 52 1016.8
20260506202840 44 289 4.0 6.0 0.00 0.00 0.00 51 1016.8
20260506202338 44 204 2.0 6.0 0.00 0.00 0.00 51 1016.9
20260506201834 43 251 6.0 8.0 0.00 0.00 0.00 52 1017.0
20260506201332 43 287 5.0 14.0 0.00 0.00 0.00 51 1017.1
20260506200828 43 290 5.0 7.0 0.00 0.00 0.00 52 1016.9
20260506200324 44 268 4.0 8.0 0.00 0.00 0.00 50 1016.9
20260506195820 43 316 3.0 6.0 0.00 0.00 0.00 52 1016.9
20260506195318 43 283 4.0 7.0 0.00 0.00 0.00 51 1017.1
20260506194815 43 349 4.0 5.0 0.00 0.00 0.00 52 1016.9
20260506194311 43 223 1.0 3.0 0.00 0.00 0.00 51 1017.2
20260506193809 42 254 5.0 8.0 0.00 0.00 0.00 51 1017.0
20260506193306 42 217 2.0 5.0 0.00 0.00 0.00 52 1017.0
20260506192802 42 267 4.0 7.0 0.00 0.00 0.00 52 1016.9
20260506192259 42 315 3.0 7.0 0.00 0.00 0.00 53 1016.9
20260506191756 42 306 5.0 6.0 0.00 0.00 0.00 52 1017.0
20260506191252 42 268 3.0 5.0 0.00 0.00 0.00 53 1017.1
20260506190749 42 211 1.0 5.0 0.00 0.00 0.00 53 1017.0
20260506190245 43 247 8.0 9.0 0.00 0.00 0.00 51 1017.0
20260506185743 42 283 3.0 9.0 0.00 0.00 0.00 52 1016.9
20260506185239 43 307 6.0 9.0 0.00 0.00 0.00 51 1017.0
20260506184736 42 323 5.0 8.0 0.00 0.00 0.00 51 1017.0
20260506184234 43 256 6.0 8.0 0.00 0.00 0.00 50 1016.7
20260506183731 42 340 4.0 5.0 0.00 0.00 0.00 52 1017.0
20260506183226 42 287 3.0 7.0 0.00 0.00 0.00 51 1017.1
20260506182723 42 232 1.0 3.0 0.00 0.00 0.00 51 1017.0
20260506182220 42 261 5.0 7.0 0.00 0.00 0.00 52 1017.1
20260506181718 42 310 3.0 6.0 0.00 0.00 0.00 50 1017.1
20260506181211 42 272 5.0 8.0 0.00 0.00 0.00 51 1017.1
20260506180708 42 286 4.0 10.0 0.00 0.00 0.00 51 1017.0
20260506180203 41 335 4.0 7.0 0.00 0.00 0.00 52 1017.1
20260506175700 41 315 4.0 11.0 0.00 0.00 0.00 51 1017.0
20260506175157 41 287 3.0 6.0 0.00 0.00 0.00 52 1017.2
20260506174655 41 333 4.0 7.0 0.00 0.00 0.00 52 1017.1
20260506174151 42 313 6.0 7.0 0.00 0.00 0.00 51 1017.3
20260506173649 42 311 5.0 8.0 0.00 0.00 0.00 51 1017.2
20260506173145 41 350 3.0 6.0 0.00 0.00 0.00 52 1017.3
20260506172642 41 307 7.0 8.0 0.00 0.00 0.00 51 1017.4
20260506172139 41 272 4.0 10.0 0.00 0.00 0.00 51 1017.3
20260506171631 42 332 4.0 8.0 0.00 0.00 0.00 50 1017.5
20260506171128 42 316 3.0 10.0 0.00 0.00 0.00 51 1017.5
20260506170625 42 348 6.0 8.0 0.00 0.00 0.00 51 1017.4
20260506170117 41 236 4.0 9.0 0.00 0.00 0.00 52 1017.5
20260506165616 41 327 6.0 8.0 0.00 0.00 0.00 52 1017.7
20260506165111 41 298 5.0 6.0 0.00 0.00 0.00 52 1017.7
20260506164609 41 345 6.0 8.0 0.00 0.00 0.00 52 1017.8
20260506164106 41 322 7.0 13.0 0.00 0.00 0.00 51 1017.5
20260506163602 41 312 3.0 6.0 0.00 0.00 0.00 52 1017.5
20260506163058 41 289 6.0 11.0 0.00 0.00 0.00 52 1017.5
20260506162554 41 349 5.0 7.0 0.00 0.00 0.00 52 1017.4
20260506162051 40 3 4.0 9.0 0.00 0.00 0.00 52 1017.7
20260506161549 40 347 6.0 8.0 0.00 0.00 0.00 53 1017.7
20260506161046 40 314 6.0 8.0 0.00 0.00 0.00 52 1017.5
20260506160543 40 332 4.0 10.0 0.00 0.00 0.00 52 1017.7
20260506160040 40 300 6.0 10.0 0.00 0.00 0.00 51 1017.5
20260506155539 40 266 4.0 8.0 0.00 0.00 0.00 52 1017.4
20260506153715 40 15 3.0 8.0 0.00 0.00 0.00 51 1017.1
20260506153213 41 335 3.0 6.0 0.00 0.00 0.00 52 1017.2
20260506152709 41 293 5.0 7.0 0.00 0.00 0.00 52 1017.4
20260506152207 41 194 1.0 7.0 0.00 0.00 0.00 52 1017.1
20260506151706 40 160 1.0 3.0 0.00 0.00 0.00 53 1017.4
20260506151202 40 299 3.0 9.0 0.00 0.00 0.00 53 1017.2
20260506150658 40 274 3.0 3.0 0.00 0.00 0.00 55 1017.4
20260506150155 40 338 5.0 7.0 0.00 0.00 0.00 54 1017.2
20260506145652 39 9 3.0 6.0 0.00 0.00 0.00 55 1017.3
20260506145149 40 68 3.0 6.0 0.00 0.00 0.00 55 1017.5
20260506144647 39 326 5.0 5.0 0.00 0.00 0.00 55 1017.4
20260506144144 39 336 5.0 8.0 0.00 0.00 0.00 54 1017.5
20260506143641 39 351 3.0 6.0 0.00 0.00 0.00 55 1017.4
20260506143139 39 292 5.0 8.0 0.00 0.00 0.00 55 1017.4
20260506142637 39 325 5.0 7.0 0.00 0.00 0.00 55 1017.4
20260506142135 39 308 3.0 7.0 0.00 0.00 0.00 56 1017.4
20260506141632 39 237 1.0 6.0 0.00 0.00 0.00 57 1017.3
20260506141130 39 322 4.0 5.0 0.00 0.00 0.00 56 1017.4
20260506140628 39 338 5.0 8.0 0.00 0.00 0.00 56 1017.3
20260506140125 39 248 2.0 3.0 0.00 0.00 0.00 58 1017.4
20260506135622 39 297 4.0 5.0 0.00 0.00 0.00 57 1017.3
20260506135118 38 237 1.0 3.0 0.00 0.00 0.00 58 1017.3
20260506134614 38 293 5.0 7.0 0.00 0.00 0.00 58 1017.1
20260506134110 38 264 5.0 6.0 0.00 0.00 0.00 59 1017.3
20260506133608 38 281 5.0 7.0 0.00 0.00 0.00 59 1017.3
20260506133105 38 262 5.0 6.0 0.00 0.00 0.00 59 1017.3
20260506132602 38 297 4.0 6.0 0.00 0.00 0.00 59 1017.1
20260506132059 38 276 3.0 5.0 0.00 0.00 0.00 59 1017.0
20260506131556 38 256 3.0 6.0 0.00 0.00 0.00 59 1017.0
20260506131052 38 278 2.0 6.0 0.00 0.00 0.00 58 1016.9
20260506130549 38 359 3.0 5.0 0.00 0.00 0.00 58 1016.8
20260506130047 38 305 3.0 8.0 0.00 0.00 0.00 59 1016.9
20260506125545 38 323 5.0 7.0 0.00 0.00 0.00 58 1016.9
20260506125043 38 213 2.0 5.0 0.00 0.00 0.00 57 1016.8
20260506124540 38 345 5.0 8.0 0.00 0.00 0.00 57 1016.6
20260506124038 39 243 2.0 5.0 0.00 0.00 0.00 58 1016.6
20260506123535 38 242 3.0 6.0 0.00 0.00 0.00 58 1016.5
20260506123034 38 223 3.0 3.0 0.00 0.00 0.00 59 1016.6
20260506122529 38 337 3.0 6.0 0.00 0.00 0.00 59 1016.3
20260506122028 37 240 3.0 3.0 0.00 0.00 0.00 61 1016.3
20260506121525 37 187 0.0 1.0 0.00 0.00 0.00 62 1016.3
20260506121021 37 194 0.0 2.0 0.00 0.00 0.00 64 1016.2
20260506120519 36 214 1.0 2.0 0.00 0.00 0.00 65 1016.3
20260506120017 35 206 1.0 1.0 0.00 0.00 0.00 67 1016.2
20260506115514 35 190 0.0 2.0 0.00 0.00 0.00 68 1016.2
20260506115013 34 212 1.0 2.0 0.00 0.00 0.00 70 1015.9
20260506114509 33 205 1.0 2.0 0.00 0.00 0.00 74 1015.8
20260506114008 32 218 0.0 1.0 0.00 0.00 0.00 77 1015.6
20260506113505 32 189 0.0 0.0 0.00 0.00 0.00 77 1015.8
20260506113002 31 198 1.0 1.0 0.00 0.00 0.00 78 1015.7
20260506112459 31 192 0.0 0.0 0.00 0.00 0.00 78 1015.5
20260506111956 31 192 0.0 0.0 0.00 0.00 0.00 78 1015.5
20260506111455 31 192 0.0 0.0 0.00 0.00 0.00 77 1015.6
20260506110951 31 192 0.0 0.0 0.00 0.00 0.00 77 1015.5
20260506110449 31 201 0.0 1.0 0.00 0.00 0.00 77 1015.6
20260506105945 31 198 0.0 0.0 0.00 0.00 0.00 77 1015.9
20260506105442 31 205 0.0 0.0 0.00 0.00 0.00 76 1015.8
20260506104939 31 201 0.0 0.0 0.00 0.00 0.00 76 1015.8
20260506104437 31 204 0.0 0.0 0.00 0.00 0.00 76 1015.8
20260506103935 31 205 1.0 1.0 0.00 0.00 0.00 76 1015.9
20260506103432 32 205 0.0 0.0 0.00 0.00 0.00 75 1016.0
20260506102929 32 204 0.0 1.0 0.00 0.00 0.00 74 1015.8
20260506102427 32 206 1.0 2.0 0.00 0.00 0.00 73 1015.6
20260506101924 32 205 0.0 0.0 0.00 0.00 0.00 71 1015.5
20260506101420 33 204 0.0 0.0 0.00 0.00 0.00 70 1015.4
20260506100918 33 201 0.0 0.0 0.00 0.00 0.00 70 1015.4
20260506100416 33 201 0.0 1.0 0.00 0.00 0.00 70 1015.3
20260506095914 33 200 0.0 0.0 0.00 0.00 0.00 70 1015.3
20260506095412 33 201 0.0 0.0 0.00 0.00 0.00 71 1015.3
20260506094908 32 201 0.0 0.0 0.00 0.00 0.00 71 1015.2
20260506094407 32 200 0.0 0.0 0.00 0.00 0.00 72 1015.2
20260506093904 32 200 0.0 0.0 0.00 0.00 0.00 73 1015.1
20260506093401 31 202 0.0 0.0 0.00 0.00 0.00 74 1015.3
20260506092859 31 196 0.0 0.0 0.00 0.00 0.00 73 1015.3
20260506092357 32 197 0.0 0.0 0.00 0.00 0.00 72 1015.3
20260506091853 32 195 0.0 0.0 0.00 0.00 0.00 70 1015.2
20260506091351 32 200 0.0 0.0 0.00 0.00 0.00 69 1015.4
20260506090848 33 204 0.0 0.0 0.00 0.00 0.00 68 1015.4
20260506090346 33 206 0.0 0.0 0.00 0.00 0.00 67 1015.4
20260506085843 33 205 0.0 0.0 0.00 0.00 0.00 68 1015.3
20260506085339 33 203 0.0 0.0 0.00 0.00 0.00 67 1015.4
20260506084835 33 202 0.0 0.0 0.00 0.00 0.00 67 1015.3
20260506084332 33 203 0.0 0.0 0.00 0.00 0.00 67 1014.9
20260506083829 33 208 0.0 0.0 0.00 0.00 0.00 67 1014.8
20260506083326 33 205 0.0 1.0 0.00 0.00 0.00 67 1015.0
20260506082824 33 215 1.0 1.0 0.00 0.00 0.00 69 1014.8
20260506082320 33 205 0.0 0.0 0.00 0.00 0.00 67 1014.9
20260506081816 33 203 0.0 1.0 0.00 0.00 0.00 67 1014.9
20260506081314 33 204 0.0 1.0 0.00 0.00 0.00 67 1015.1
20260506080812 33 205 0.0 1.0 0.00 0.00 0.00 67 1015.1
20260506080308 33 206 1.0 1.0 0.00 0.00 0.00 67 1015.2
20260506073252 36 201 0.0 0.0 0.00 0.00 0.00 62 1014.7
20260506072749 36 207 1.0 2.0 0.00 0.00 0.00 61 1014.5
20260506072246 36 196 0.0 1.0 0.00 0.00 0.00 61 1014.7
20260506071744 36 202 0.0 1.0 0.00 0.00 0.00 60 1014.6
20260506071242 36 225 1.0 2.0 0.00 0.00 0.00 60 1014.6
20260506070738 37 213 1.0 2.0 0.00 0.00 0.00 60 1014.7
20260506070235 37 206 1.0 2.0 0.00 0.00 0.00 59 1014.6
20260506062212 38 227 2.0 3.0 0.00 0.00 0.00 57 1014.6
20260506061708 38 97 1.0 2.0 0.00 0.00 0.00 57 1014.5
20260506061206 38 258 2.0 2.0 0.00 0.00 0.00 57 1014.5
20260506060705 38 269 3.0 3.0 0.00 0.00 0.00 57 1014.7
20260506060201 38 242 2.0 3.0 0.00 0.00 0.00 56 1014.8
20260506051133 39 264 2.0 3.0 0.00 0.00 0.00 55 1014.1
20260506050632 39 282 2.0 3.0 0.00 0.00 0.00 55 1014.1
20260506050128 40 292 3.0 3.0 0.00 0.00 0.00 55 1014.0
20260506045121 40 221 1.0 3.0 0.00 0.00 0.00 54 1013.9
20260506044619 40 323 3.0 3.0 0.00 0.00 0.00 55 1014.0
20260506044116 40 347 3.0 5.0 0.00 0.00 0.00 55 1014.0
20260506043613 40 338 4.0 5.0 0.00 0.00 0.00 54 1013.9
20260506043111 40 192 0.0 5.0 0.00 0.00 0.00 54 1014.1
20260506042610 40 230 1.0 3.0 0.00 0.00 0.00 54 1014.0
20260506042108 41 199 0.0 2.0 0.00 0.00 0.00 54 1014.0
20260506041606 41 209 1.0 2.0 0.00 0.00 0.00 53 1013.9
20260506041103 41 294 2.0 6.0 0.00 0.00 0.00 53 1013.9
20260506040601 41 213 1.0 2.0 0.00 0.00 0.00 53 1013.8
20260506040056 41 296 3.0 5.0 0.00 0.00 0.00 53 1013.9
20260506035554 41 73 2.0 3.0 0.00 0.00 0.00 53 1013.9
20260506035050 41 224 1.0 3.0 0.00 0.00 0.00 53 1013.8
20260506034548 42 228 2.0 3.0 0.00 0.00 0.00 52 1013.9
20260506034044 42 295 2.0 3.0 0.00 0.00 0.00 52 1013.7
20260506033542 42 319 4.0 5.0 0.00 0.00 0.00 52 1013.5
20260506033038 42 174 1.0 3.0 0.00 0.00 0.00 52 1013.5
20260506032536 42 323 4.0 6.0 0.00 0.00 0.00 51 1013.3
20260506032032 43 116 1.0 3.0 0.00 0.00 0.00 51 1013.3